Other Public Products
Issued by NWS Charleston, SC

Current Version | Previous Version | Graphics & Text | Print | Product List | Glossary On
Versions: 1 2 3 4 5 6 7 8 9 10 11 12 13 14 15 16 17 18 19 20 21 22 23 24 25 26 27 28 29 30 31 32 33 34 35 36 37 38 39 40 41 42 43 44 45 46 47 48 49 50
000
FPUS82 KCHS 211727
OPUCHS

TEST...KCHS/KSAV Gateway Observations...TEST
National Weather Service Charleston SC
1200 PM EST TUE NOV 21 2017

NOTE: "fair" indicates few or no clouds below 12,000 feet with no
significant weather and/or obstructions to visibility.

SCZ050-WAZ558-NCZ071-TXZ119-213-PAZ071-DCZ001-FLZ074-172-MI076-
NYZ176-178-MAZ016-IL014-TNZ027-NJZ106-GAZ044-MD014-211800-

...Gateway Observations for Charleston International...

CITY           SKY/WX    TMP DP  RH WIND       PRES   REMARKS
Chas Airport   PTSUNNY   71  57  61 E6        30.10F
Seattle        LGT RAIN  43  42  97 W3        29.94F FOG
Charlotte      CLOUDY    58  44  60 S6        30.15F
Dallas DFW     MOSUNNY   63  51  65 S8        29.91R
Dallas Love    MOSUNNY   62  51  67 VRB3      29.92R
Philladelphia  PTSUNNY   56  31  38 SW17      30.10F
Wash National  CLOUDY    59  32  36 S17G23    30.10F
Baltimore      PTSUNNY   57  30  35 SW10G18   30.08F
Miami          MOSUNNY   83  70  64 S7        29.98F
Detroit        PTSUNNY   50  31  48 SW22G31   29.74F
Newark         PTSUNNY   56  32  40 SW17G26   30.08F
Laguardia      PTSUNNY   56  30  37 SW16G25   30.08F
J F K          PTSUNNY   57  33  40 SW22      30.11F
Boston Logan   MOSUNNY   57  28  33 SW31G38   30.03F
Ft. Lauderdale MOSUNNY   80  69  69 SE9       29.97F
Chicago O`Hare CLOUDY    43  25  49 W15G24    29.80R
Chicago Midway LGT RAIN  41  35  79 W12       29.82R
Houston Bush   CLOUDY    71  63  75 SE9       29.92F
Houston Hobby  CLOUDY    71  65  81 S5        29.92F
Nashville      MOSUNNY   56  31  38 SW12G17   30.07F
Atlanta        PTSUNNY   59  48  67 SE6       30.10F

$$

GAZ044-118-TXZ119-213-NCZ071-DCZ001-MDZ014-506-PAZ021-071-NJZ106-
NYZ176-178-MAZ106-OHZ011-021-055-MIZ076-KYZ091-ILZ014-INZ047-
MNZ060-ONZ431-211800-

...Gateway Observations for Savannah International...

CITY           SKY/WX    TMP DP  RH WIND       PRES   REMARKS
Savannah Arpt  CLOUDY    71  58  63 E8        30.08F
Atlanta        PTSUNNY   59  48  67 SE6       30.10F
Charlotte      CLOUDY    58  44  60 S6        30.15F
Dallas DFW     MOSUNNY   63  51  65 S8        29.91R
Houston Bush   CLOUDY    71  63  75 SE9       29.92F
Wash National  CLOUDY    59  32  36 S17G23    30.10F
Wash Dulles    CLOUDY    54  31  41 SW16      30.08F
Baltimore      PTSUNNY   57  30  35 SW10G18   30.08F
Philadelphia   PTSUNNY   56  31  38 SW17      30.10F
Newark         PTSUNNY   56  32  40 SW17G26   30.08F
Laguardia      PTSUNNY   56  30  37 SW16G25   30.08F
J F K          PTSUNNY   57  33  40 SW22      30.11F
Boston         MOSUNNY   57  28  33 SW31G38   30.03F
Pittsburg      MOSUNNY   51  27  39 SW20G30   29.93F
Akron          PTSUNNY   50  27  40 S25G38    29.86F
Cleveland      PTSUNNY   52  30  43 SW18G35   29.84S
Cincinnati     MOSUNNY   51  31  46 SW17G30   29.94F
Columbus       CLOUDY    50  31  48 SW20G31   29.91F
Detroit        PTSUNNY   50  31  48 SW22G31   29.74F
Chicago O`Hare CLOUDY    43  25  49 W15G24    29.80R
Minneapolis    MOSUNNY   25  12  58 NW20G29   30.06R WCI  11
Indianapolis   NOT AVBL
Toronto Canada PTSUNNY   52  34  50 SW23G38   29.65S

$$




USA.gov is the U.S. government's official web portal to all federal, state and local government web resources and services.